Probability
27 29 31 31 29 25 21 17 15 12 9 7 5 3 3 5 7 9 10 13 16 15 12 8 6 4 3 3 5 7 6 2 2 4 3 1 0 0 0 0 1 2 2
30 31 33 33 30 26 22 18 15 13 12 10 7 5 4 5 7 8 10 12 14 14 11 8 6 5 5 5 6 7 5 3 4 4 3 2 1 0 0 0 2 3 2
33 31 33 35 33 28 25 21 17 15 14 13 10 7 5 4 5 7 8 10 11 12 10 7 5 4 5 6 6 6 4 4 4 3 2 1 1 1 2 1 2 3 4
33 30 33 37 35 31 29 25 21 16 15 14 12 10 8 6 5 5 5 7 9 10 9 6 4 3 5 6 7 6 4 4 4 2 1 0 1 3 5 4 2 4 6
31 32 36 40 39 35 33 29 23 18 15 13 12 12 11 9 7 5 4 5 7 8 8 6 4 4 5 6 7 6 5 4 3 1 0 1 2 5 8 7 5 5 7
29 32 37 42 42 39 35 30 24 18 16 13 11 11 11 11 9 7 5 4 4 5 6 6 5 5 5 6 7 7 5 3 2 1 0 1 4 8 10 9 7 7 7
28 30 34 41 42 38 33 27 21 17 16 14 12 10 10 9 8 8 6 5 5 5 6 6 6 6 6 6 6 6 4 3 2 0 0 2 7 13 14 12 10 7 6
28 27 30 35 36 32 28 24 20 18 18 17 15 12 9 8 7 8 8 7 7 7 6 6 6 6 6 6 5 4 3 3 2 0 0 4 11 18 18 15 12 8 5
28 26 24 25 25 24 23 23 23 25 25 23 18 14 10 8 8 8 8 9 8 7 5 4 4 5 6 6 5 4 3 3 2 1 2 6 14 20 20 16 13 9 7
28 24 19 18 19 19 22 25 27 29 30 28 22 17 13 10 9 9 10 11 10 8 4 2 2 3 5 5 5 5 5 4 3 2 4 8 15 20 19 16 13 11 9
27 23 19 19 20 20 23 27 29 30 31 29 25 21 17 14 11 10 12 15 14 10 6 3 1 2 3 4 4 4 6 6 5 4 6 11 17 19 18 16 15 13 11
26 23 22 23 24 23 25 29 31 29 28 28 26 24 22 18 14 11 15 19 18 14 10 7 5 4 3 3 3 4 6 6 5 5 8 15 19 19 17 17 17 15 13
24 23 22 23 26 26 27 30 31 28 27 27 27 26 23 21 18 17 22 24 22 19 15 12 9 7 5 4 4 6 7 7 7 7 10 19 23 21 18 18 18 16 15
24 23 22 24 27 29 30 32 31 28 27 28 29 26 23 23 22 24 28 28 26 23 20 16 13 10 9 8 6 7 7 9 11 11 13 21 25 22 18 17 16 16 15
25 25 25 27 31 31 32 33 31 29 28 28 28 26 24 24 24 27 30 29 27 24 21 19 17 15 15 12 10 9 9 11 14 14 15 22 26 23 18 13 13 14 13
25 27 29 30 32 33 32 30 28 29 29 27 26 25 23 23 25 27 29 29 27 25 23 20 20 19 17 16 14 14 15 15 16 17 18 21 25 24 18 13 12 14 14
25 28 29 29 32 34 31 26 24 25 27 25 24 24 24 24 25 26 27 28 28 26 24 22 20 18 17 17 17 18 20 21 21 20 20 19 19 20 18 15 14 15 16
25 27 28 29 30 31 29 25 22 22 23 23 22 24 26 26 26 27 26 25 25 25 22 20 19 17 15 16 17 18 21 24 24 22 19 16 15 15 14 11 11 14 15
25 26 27 29 28 26 26 27 25 22 24 25 25 26 27 27 28 30 28 25 23 20 17 16 17 17 14 14 14 16 19 22 22 19 16 14 14 14 10 7 8 10 11
23 25 27 29 28 26 27 28 26 24 26 28 28 28 27 27 29 30 28 25 20 16 14 14 16 16 14 12 12 13 15 17 18 17 15 14 14 12 9 8 9 9 9
18 21 24 25 27 28 29 28 27 25 25 25 24 25 26 25 26 26 24 21 18 14 14 15 15 14 12 12 12 11 10 12 14 14 14 13 12 11 10 10 12 11 9
13 15 18 21 24 28 29 28 27 24 22 20 20 21 23 23 22 21 20 17 15 14 14 16 16 13 11 11 11 10 7 7 9 10 11 11 10 10 10 10 12 13 13
10 11 15 20 25 27 27 27 25 22 19 18 19 21 23 22 20 19 17 14 13 14 14 16 16 14 10 10 10 9 7 6 6 7 9 9 8 7 8 9 12 14 16
11 13 18 24 27 28 27 25 22 20 18 17 18 20 22 23 21 18 15 13 13 13 13 14 14 12 10 8 8 8 7 6 5 5 7 7 6 5 6 9 11 13 14
14 16 21 25 27 27 25 23 20 19 18 19 19 19 20 20 19 16 13 13 14 12 11 12 13 13 9 6 5 5 5 6 6 5 5 4 4 3 5 9 10 10 10
15 18 21 24 26 26 24 22 20 19 19 21 21 19 18 18 17 14 11 12 14 13 12 13 14 14 10 6 3 3 4 5 6 5 3 2 1 2 4 8 9 8 7
Wind_Speed
10 13 15 13 11 10 9 8 8 7 7 7 7 7 7 7 8 8 9 9 9 9 9 8 7 7 6 6 6 7 7 7 6 7 7 8 8 9 8 8 7 8 11
12 13 14 13 11 10 9 8 7 7 7 7 7 7 7 7 7 7 8 7 7 7 7 7 7 6 6 5 5 5 5 5 4 4 5 5 7 8 8 7 6 6 10
12 13 13 12 11 10 9 8 7 7 7 8 7 7 7 7 7 7 7 7 6 6 6 6 6 6 5 5 4 4 4 4 3 3 3 4 7 9 8 7 8 8 7
12 12 11 12 10 9 8 7 6 7 7 7 7 7 7 7 6 6 6 6 6 6 6 6 5 6 5 5 4 4 3 3 3 4 4 4 5 10 9 8 8 8 7
11 11 12 12 10 9 8 7 7 6 7 7 7 7 6 6 6 6 6 6 6 5 5 5 5 5 5 5 5 4 4 4 5 6 5 2 4 10 10 9 8 8 7
11 12 12 12 11 10 9 8 7 7 6 6 6 6 6 6 6 6 6 6 5 5 5 5 4 5 5 5 5 5 5 5 6 6 3 3 5 9 11 10 9 8 7
9 11 12 12 11 10 10 8 7 6 6 5 5 6 5 5 5 5 6 5 5 4 4 5 4 5 5 6 6 5 5 6 6 5 3 3 6 11 11 10 8 7 7
10 10 11 12 11 10 10 9 8 7 6 5 5 5 5 5 5 5 5 5 5 5 4 5 5 5 5 6 7 6 6 7 6 5 2 3 8 11 11 10 8 7 6
9 9 9 9 9 10 9 9 8 7 7 6 5 5 5 5 5 6 6 6 6 5 5 6 6 6 6 7 7 7 8 8 6 4 4 3 9 11 11 10 8 7 6
6 5 6 7 7 8 7 8 9 8 7 7 6 6 5 6 7 7 7 6 6 6 6 6 6 7 7 8 8 9 9 8 7 6 2 5 9 11 11 9 8 7 6
5 4 5 5 6 5 6 7 8 8 7 6 6 6 6 5 5 6 6 7 8 7 7 7 8 8 8 9 10 10 9 5 6 4 2 8 10 10 10 9 8 7 6
4 4 3 4 4 4 4 5 5 5 5 5 4 5 4 3 3 4 6 8 9 9 8 9 9 9 9 6 9 12 6 7 6 3 4 10 11 11 10 9 8 7 6
3 3 2 3 2 2 2 3 2 3 3 4 5 4 3 3 2 2 2 4 5 7 6 6 7 6 6 5 4 6 7 5 3 3 6 11 11 11 10 9 9 8 7
4 4 3 3 2 3 2 1 2 1 2 2 3 3 2 2 1 1 1 2 3 3 3 3 3 4 4 5 6 6 6 4 3 2 5 11 12 11 11 10 9 8 8
4 3 4 4 3 2 2 0 2 1 1 1 2 2 1 1 1 1 0 1 1 1 2 2 3 3 3 4 5 5 4 4 3 3 4 11 12 11 11 10 10 9 8
2 3 3 3 3 2 2 0 0 0 1 1 1 2 2 1 0 0 1 1 1 1 1 2 2 2 3 3 3 3 4 4 3 3 4 7 11 11 11 11 10 10 10
2 2 2 2 2 2 1 1 1 1 1 1 1 2 2 1 1 1 1 1 1 1 2 2 2 2 3 3 3 3 3 4 4 4 4 4 6 10 12 11 11 10 10
2 2 1 0 2 2 1 0 1 1 0 0 1 1 1 2 2 2 1 1 1 1 1 1 1 1 2 2 2 3 3 2 4 4 4 4 4 5 9 12 12 12 11
2 2 1 0 1 2 2 1 1 1 1 1 1 1 1 2 2 2 2 1 2 2 1 2 1 1 2 2 3 3 2 3 3 4 4 5 4 4 5 9 13 13 13
2 2 1 0 0 0 1 1 1 1 2 1 1 1 2 2 2 2 2 2 2 2 1 1 1 1 2 2 4 3 2 2 3 3 4 4 4 5 5 6 6 9 13
2 2 1 1 1 0 1 1 1 2 1 1 1 1 1 2 2 2 2 2 2 2 3 2 2 2 2 2 2 2 3 3 3 3 3 3 4 4 4 5 4 4 5
2 1 1 1 1 1 0 1 2 2 2 2 1 1 2 3 3 3 3 3 2 2 3 2 2 2 2 1 1 2 2 2 2 4 3 3 4 3 4 6 5 4 4
2 1 1 2 1 1 0 1 2 1 1 1 1 1 2 3 3 2 2 2 2 2 2 3 3 3 3 3 2 2 1 1 1 2 5 4 4 3 3 3 5 5 5
1 1 2 2 1 1 0 1 2 2 2 2 2 1 2 2 2 2 3 3 2 2 3 3 2 2 3 3 3 3 2 1 1 1 2 3 4 4 4 4 4 4 4
1 2 2 2 1 1 0 1 2 3 2 2 2 1 2 2 2 2 2 2 2 2 2 2 2 2 2 2 3 2 3 2 3 2 2 2 3 3 4 4 3 3 4
2 2 3 2 2 1 1 1 2 3 3 3 2 2 2 1 1 2 1 1 2 2 2 2 2 2 2 2 3 2 2 2 2 2 3 3 3 3 3 3 3 4 4
Wind_Direction
104 116 119 116 114 113 113 117 117 117 120 120 118 114 110 105 100 99 101 104 108 117 124 127 126 124 118 103 90 89 90 87 86 93 98 104 110 113 114 115 117 115 119
107 115 119 117 117 116 118 120 118 115 121 125 124 122 120 116 112 112 114 116 119 122 130 134 134 133 131 120 109 106 108 105 104 113 122 133 137 133 128 122 113 110 125
107 117 121 119 120 121 120 119 119 121 122 127 129 131 130 128 126 126 129 131 132 134 136 142 146 147 146 139 132 129 132 136 151 169 186 183 158 150 142 133 124 126 126
107 118 120 124 124 123 122 121 122 127 128 129 135 138 140 140 141 142 144 144 144 145 146 150 158 160 162 158 156 159 169 181 204 223 227 202 160 152 152 144 138 138 137
107 116 120 127 125 125 125 123 125 130 131 134 141 143 144 146 149 154 158 157 157 157 160 163 168 173 176 174 176 182 196 212 229 242 243 178 129 148 153 149 144 146 147
119 120 128 135 133 131 129 128 130 135 137 140 143 146 149 151 157 163 169 170 171 174 173 177 182 188 189 191 195 199 211 229 247 244 223 177 143 147 148 150 149 151 151
118 118 136 139 137 136 135 135 138 139 141 146 149 150 156 163 166 169 173 178 179 182 188 190 196 203 205 206 211 216 224 245 250 255 227 165 143 145 148 153 154 155 158
114 121 133 140 140 143 146 146 146 146 145 148 151 155 162 170 176 181 182 181 179 188 204 212 212 213 216 218 218 223 235 251 254 254 222 152 143 146 149 149 153 160 165
108 122 135 144 146 150 154 154 157 154 155 161 157 162 171 177 182 189 191 189 186 188 203 215 223 222 222 224 223 229 236 246 258 262 244 155 148 149 149 152 157 167 175
94 112 134 142 149 154 158 164 163 162 161 167 169 175 181 188 192 200 196 195 195 197 205 214 222 226 227 230 233 231 236 247 245 249 227 154 152 153 156 160 164 171 180
90 112 123 140 148 157 158 160 167 169 167 167 175 184 187 200 196 202 202 194 205 209 214 220 225 227 227 231 231 232 234 234 232 225 199 158 159 157 161 165 170 176 188
92 103 116 124 143 158 156 143 166 172 171 181 176 179 199 215 211 204 175 192 208 213 218 223 227 229 230 224 222 223 225 228 228 210 173 163 164 165 169 173 177 184 193
104 94 95 103 113 129 117 146 169 172 166 185 174 177 205 219 210 190 172 183 205 211 215 217 223 228 224 215 211 205 217 227 220 200 171 166 169 173 175 179 185 190 199
84 70 59 74 78 72 76 121 143 155 162 177 168 186 202 214 227 202 189 195 202 208 207 211 221 228 234 222 220 219 214 219 207 188 172 171 174 180 183 186 192 199 206
85 82 70 77 74 80 76 79 123 146 168 172 161 177 196 213 230 236 232 231 243 237 225 232 233 237 244 244 231 226 223 223 207 192 174 181 182 186 189 193 198 203 209
78 88 86 94 103 103 101 85 138 151 155 181 172 175 196 222 273 258 239 245 254 263 262 258 264 256 248 249 249 245 233 221 204 192 181 183 188 189 193 198 203 207 211
64 70 98 138 128 126 125 221 152 213 199 190 178 168 184 201 217 244 239 247 266 271 263 253 264 258 258 249 239 237 234 214 203 200 191 185 186 193 196 200 203 205 208
69 80 68 21 121 131 141 196 297 306 334 195 178 169 196 206 213 243 242 256 272 265 257 255 254 272 273 268 259 247 228 209 203 210 203 198 189 188 197 203 205 207 209
80 97 113 337 159 166 166 191 246 251 268 254 193 179 205 220 223 240 244 254 266 276 279 273 252 259 275 277 268 251 226 218 207 215 209 210 201 192 189 201 207 212 213
80 96 140 177 153 173 187 192 229 241 242 250 227 199 210 225 238 242 241 244 257 258 266 274 270 260 254 260 269 269 252 232 218 210 217 215 204 206 199 195 199 212 215
64 75 90 105 116 168 230 234 248 248 250 250 230 210 220 247 246 236 265 244 244 246 245 246 253 253 250 248 272 278 265 243 229 211 214 218 218 211 207 201 196 198 205
74 90 124 123 132 177 235 272 259 249 247 242 249 216 226 237 247 235 238 244 234 248 252 246 249 261 268 244 246 280 273 262 241 230 213 210 220 213 211 217 197 197 199
87 84 88 105 102 137 229 265 278 275 273 270 253 234 241 239 240 248 241 252 249 243 241 237 237 234 248 258 225 222 246 255 271 219 223 221 214 218 219 220 204 193 195
83 91 97 97 95 117 212 278 284 288 286 277 257 245 258 248 243 235 244 244 252 257 250 247 239 244 239 256 255 235 242 252 256 279 247 230 222 224 223 226 220 202 196
89 87 91 84 71 65 27 311 299 304 295 292 283 258 263 263 258 254 245 240 244 248 247 251 258 260 251 255 259 252 251 251 241 246 268 263 245 232 219 213 211 203 199
53 65 73 73 55 40 2 331 307 311 312 314 313 300 291 285 273 272 284 301 280 270 255 252 239 243 244 252 260 263 255 247 243 240 251 258 258 253 232 218 210 206 203